星链-31155 (STARLINK-31155 )

导读 | 星芒AI

STARLINK-31155 是 SpaceX Starlink 项目中的一颗低轨通信卫星,属于第三代星链卫星(v1.5 或 v2 构型)。它于2023年发射,运行在约550公里高度的近地轨道,旨在为全球提供高速互联网服务。该卫星采用先进推进系统和激光通信技术,提高网络稳定性和传输效率。作为星链星座的一部分,STARLINK-31155 支持偏远地区通信,促进全球数字连接。

基本信息
目录编号:
58728
目录名称:
STARLINK-31155
国际标识:
2024-005A
轨道中心:
EARTH
卫星名称:
星链-31155
卫星全名:
星链-31155 (STARLINK-31155 )
卫星状态:
已陨落 最后检测时间 2025-03-31
发射日期:
2024-01-07 UTC
国别 :
美国 (US)
星等 :
--
轨道信息
数据来源 国际轨道数据
星历时间: 2025-03-31T17:49:41+0800
轨道信息已过期263天
半长轴: 6594.897km
偏心率: 0.0010941
轨道倾角: 42.987°
近地点辐角 323.449°
升交点赤经 250.991°
平近点角 128.585°
近地点: 209.546km
远地点: 223.978km
周期: 88.832分钟
每日圈数: 16.21029
详细信息
固有亮度:
5
最大亮度:
0.3
卫星平台:
Starlink v2.0 mini
覆盖范围:
全球
运营商:
太空探索技术公司
运营商所在国:
美国
制造商(研发单位):
太空探索技术公司
制造商所在国:
美国
使用方式:
暂无
卫星简介
星链(Starlink)计划是由太空探索技术公司(SpaceX)提出的一个巨型低轨卫星互联网星座项目,计划在2019年至2024年间在太空搭建由约1.2万颗卫星组成的“星链”网络,其中1584颗将部署在地球上空550千米处的近地轨道,并从2020年开始工作。该卫星仍在工作。